CZ-6A DEB, 60804

Orbit data source: Space-Track

CZ-6A DEB, 60804 is space debris in LEO originally from a launch on Tue, 06 Aug 2024 UTC launched from the Taiyaun Space Center, China (TSC). Debris objects in space refer to the collection of defunct objects orbiting the Earth. Examples of debris include non-operational satellites, rocket bodies, and fragments generated from explosions, collisions, or faulty payload assembly.

Loading next visibility...
Identifier
60804, 2024-140GF
Orbit
LEO
Country
Flag of CNCN / PRC
Related business
Manufacturer
SAST
Mission
Spacecraft
Bus & Motor
Unknown
Mass
Unknown
Launch date (UTC)
2024-08-06 (2 years ago)
Launch vehicle
Unknown
Launch site
Taiyaun Space Center, China (TSC)
Object type
Payload
Rocket body
Debris
Shape & HBR
Unknown shape, 0.2 m
Radar Cross Section
Medium (>0.1 m² and <1 m²)

Expand to show TLE details & history
Last TLE update: 14 hours ago

TLE from 14 hours ago
0 CZ-6A DEB
1 60804U 24140GF  26171.27284330  .00000251  00000-0  12289-3 0  9998
2 60804  89.0401 278.2543 0075455 182.3650 177.7191 14.13283271 94765
Epoch: 2026-06-20T06:32Z
TLE epoch observation values (Epoch: 2026-06-20T06:32:53.661Z)
Latitude
-0.00001°
Longitude
-88.45913°
Altitude
905.697 km
Speed
7.371 km/s
True Right ascension
18h 33m 01s
True Declination
0° 00' 00"
Sunlit
Object was in full shadow at epoch
Visualization orbit readout
Latitude
Unknown
Longitude
Unknown
Altitude
Unknown
Speed
Unknown
Apparent Right ascension
Unknown
Apparent Declination
Unknown
Sunlit
N/A
Visualization observer readout
Local Sidereal Time
07:19:44
Azimuth
Unknown
Elevation
Unknown
Doppler factor
Unknown
Orbital elements
Apogee altitude
899.622 km
Perigee altitude
790.615 km
Semi-major axis
7,223.256 km
Eccentricity
0.00755
Inclination
89.0401°
RAAN
278.2543°
Arg. of periapsis
182.365°
True anomaly
177.75319°
Mean anomaly
177.7191°
Eccentric anomaly
177.73618°
Mean motion
3.53544 °/min
Orbital period
101.83 mins
BSTAR
0.00012289
Loading maneuver chart data...
Computing Atmospheric mass density...
Loading historical data...
Loading historical data...
Loading historical data...
Loading historical data...
Loading historical data...
Loading historical data...
Loading historical data...

Documentation

Showing up to 5 results
|